Weather History for KNUQ - December, 2013

Change the Weather History Date:

Friday, December 6, 2013

  Actual Average Record
Temperature  
Mean Temperature 45 °F 52 °F  
Max Temperature 56 °F 60 °F 71 °F (1989)
Min Temperature 33 °F 44 °F 33 °F (2013)
Degree Days  
Heating Degree Days 20    
Month to date heating degree days 104  
Since 1 July heating degree days 476  
Cooling Degree Days 0    
Month to date cooling degree days 0  
Year to date cooling degree days 478  
Moisture  
Dew Point 31 °F    
Average Humidity 58    
Maximum Humidity 77    
Minimum Humidity 38    
Precipitation  
Precipitation 0.08 in 0.07 in 1.04 in (1992)
Month to date precipitation 0.08 0.40  
Year to date precipitation 3.00 12.52  
Since 1 July precipitation 1.18 2.89  
Sea Level Pressure  
Sea Level Pressure 30.13 in    
Wind  
Wind Speed 6 mph (SSE)    
Max Wind Speed 13 mph    
Max Gust Speed 20 mph    
Visibility 10 miles    
Events Rain    
T = Trace of Precipitation, MM = Missing Value Source: NWS Daily Summary

Daily Weather History Graph

Daily Weather History Graph

Search for Another Location

Airport or City:

Trip Planner

Search our weather history database for the weather conditions in past years. The results will help you decide how hot, cold, wet, or windy it might be!

Date:

Astronomy

Dec. 06, 2013 Rise Set
Actual Time 7:08 AM PST 4:50 PM PST
Civil Twilight 6:39 AM PST 5:19 PM PST
Nautical Twilight 6:07 AM PST 5:51 PM PST
Astronomical Twilight 5:35 AM PST 6:23 PM PST
Moon 10:20 AM PST (12/6) 9:24 PM PST (12/6)
Length of Visible Light 10h 39m
Length of Day
9h 41m
Waxing Crescent, 20% of the Moon is Illuminated
Dec 6
Waxing Crescent
Dec 9
First Quarter
Dec 17
Full
Dec 25
Last Quarter
Jan 1
New

Hourly Weather History & Observations

Time (PST) Temp. Windchill Dew Point Humidity Pressure Visibility Wind Dir Wind Speed Gust Speed Precip Events Conditions
12:56 AM 36.0 °F - 25.0 °F 64% 30.19 in 10.0 mi Calm Calm - N/A   Clear
1:56 AM 36.0 °F 30.3 °F 21.9 °F 57% 30.19 in 10.0 mi SSE 6.9 mph - N/A   Scattered Clouds
2:56 AM 36.0 °F 31.1 °F 23.0 °F 59% 30.19 in 10.0 mi SSE 5.8 mph - N/A   Scattered Clouds
3:56 AM 35.1 °F 29.3 °F 24.1 °F 64% 30.18 in 10.0 mi SSE 6.9 mph - N/A   Clear
4:56 AM 35.1 °F 30.1 °F 25.0 °F 67% 30.18 in 10.0 mi SE 5.8 mph - N/A   Clear
5:56 AM 35.1 °F 30.1 °F 24.1 °F 64% 30.18 in 10.0 mi SSE 5.8 mph - N/A   Clear
6:56 AM 37.0 °F 31.6 °F 24.1 °F 59% 30.18 in 10.0 mi SSE 6.9 mph - N/A   Partly Cloudy
7:56 AM 37.9 °F 32.7 °F 24.1 °F 57% 30.19 in 10.0 mi SE 6.9 mph - N/A   Clear
8:56 AM 39.9 °F 36.7 °F 25.0 °F 55% 30.21 in 10.0 mi SSE 4.6 mph - N/A   Clear
9:56 AM 46.0 °F 43.1 °F 27.0 °F 47% 30.22 in 10.0 mi SE 5.8 mph - N/A   Clear
10:56 AM 48.9 °F - 30.0 °F 48% 30.22 in 10.0 mi Calm Calm - N/A   Partly Cloudy
11:56 AM 51.1 °F - 30.0 °F 44% 30.19 in 10.0 mi SSE 4.6 mph - N/A   Clear
12:56 PM 52.0 °F - 30.0 °F 43% 30.16 in 10.0 mi West 3.5 mph - N/A   Clear
1:56 PM 55.0 °F - 30.0 °F 38% 30.13 in 10.0 mi Calm Calm - N/A   Clear
2:56 PM 54.0 °F - 28.9 °F 38% 30.12 in 10.0 mi West 5.8 mph - N/A   Overcast
3:56 PM 53.1 °F - 33.1 °F 47% 30.12 in 10.0 mi WSW 5.8 mph - N/A   Overcast
4:56 PM 52.0 °F - 35.1 °F 53% 30.11 in 10.0 mi South 6.9 mph - N/A   Overcast
5:56 PM 51.1 °F - 36.0 °F 56% 30.09 in 10.0 mi South 6.9 mph - N/A   Overcast
6:56 PM 50.0 °F - 37.0 °F 61% 30.07 in 10.0 mi SSE 8.1 mph - N/A   Mostly Cloudy
7:56 PM 48.9 °F - 41.0 °F 74% 30.05 in 10.0 mi South 6.9 mph - 0.00 in   Overcast
8:56 PM 50.0 °F - 42.1 °F 74% 30.03 in 10.0 mi SSE 5.8 mph - N/A   Overcast
9:56 PM 50.0 °F - 43.0 °F 77% 30.01 in 10.0 mi SE 8.1 mph - 0.00 in   Overcast
10:56 PM 50.0 °F - 44.1 °F 80% 29.97 in 7.0 mi SSE 4.6 mph - 0.01 in Rain Light Rain
11:56 PM 51.1 °F - 46.9 °F 86% 29.95 in 5.0 mi West 11.5 mph 19.6 mph 0.06 in Rain Rain